User: anonymous   Login
Location: Baller�as
(41.9020°N, 0.1554°W)
Time: 18:47:35
(UTC+00:00)
Language:

Okean 1 - Orbit

View from above orbital plane
View from above orbital plane
View from above satellite
View from above satellite

Ground track
Ground track

The orbit data is extracted from the following two-line orbital elements,

1 19274U 88056A   20304.52535268  .00001073  00000-0  70520-4 0  9994
2 19274  82.5076  33.1853 0013650  73.4798 286.7928 15.06508650760291
Epoch (UTC): 30 October 2020 12:36:30
Eccentricity: 0.0013650
inclination: 82.5076°
perigee height: 537 km
apogee height: 556 km
right ascension of ascending node: 33.1853°
argument of perigee: 73.4798°
revolutions per day: 15.06508650
mean anomaly at epoch: 286.7928°
orbit number at epoch: 76029

The dashed part of the orbit path shows where the satellite is in the earth's shadow,  

DLR